Погода в Кузомени

Россия / Мурманская область     66°17′16″N   36°51′42″E
темп.,
°C
ветер,
м/с
пор.,
м/с
влажн.,
%
обл.,
%
осадки,
мм/ч
давл.,
гПа
погр.,
м
25 июня, сб
сб2500:00+12всв33840 0.0 101527
03:00+10в34892 0.0 101753
06:00+10вюв34784 0.0 101986
09:00+10ююв46785 0.0 1020174
12:00+9ююв568117 0.0 1020180
15:00+9юв44827 0.0 1020176
18:00+10ююв44770 0.0 1020101
21:00+10юв46795 0.0 1020111
26 июня, вс
вс2600:00+9юв588348 0.0 1021135
03:00+9юв698086 0.0 1020162
06:00+10юв5785100 0.0 1019128
09:00+10ююв448573 0.0 101792
12:00+11ююз348720 0.1 1015116
15:00+15ссз4975100 0.1 1015239
18:00+14ссв9156865 0.0 1018303
21:00+10св8137426 0.0 1022558
27 июня, пн
пн2700:00+8св6107625 0.0 1025589
03:00+7ссв48815 0.0 1027388
06:00+8ссв457589 0.0 1028475
09:00+10ссв2469100 0.0 1028226
12:00+12з136435 0.0 1028297
15:00+11з43685 0.0 1028379
18:00+12з34674 0.0 1029378
21:00+10ю44791 0.0 1030176
28 июня, вт
вт2800:00+7юв568611 0.0 1032305
03:00+7ююв44838 0.0 1032309
06:00+7ююв33806 0.0 1033358
09:00+8ююз33803 0.0 1033327
12:00+8ююз33805 0.0 1033323
15:00+9ююз33790 0.0 1031257
18:00+9ююз23790 0.0 1030174
21:00+9ююз23805 0.0 1029100
29 июня, ср
ср2900:00+9юз238241 0.0 102841
03:00+10юз357941 0.0 102783
06:00+11зюз467637 0.0 102699
09:00+11зюз477732 0.0 1024141
12:00+13зюз5972100 0.0 1023186
15:00+16з696711 0.0 1021317
18:00+16зюз68705 0.0 1020256
21:00+15з467697 0.0 101949